SCP
4 5 6 6 6 8 10 10 8 6 5 6 8 10 12 13 11 10 11 13 15 15 12 10 8 7 7 7 8 7 6 5 4 3 3 2 2 2 2 4 4 4 3
4 4 5 5 5 7 8 8 7 6 5 6 7 9 10 11 10 9 9 11 13 13 12 10 8 7 7 8 8 7 6 5 4 3 3 2 2 2 2 4 4 4 3
4 4 4 4 4 5 5 6 5 5 5 7 8 8 8 8 8 7 8 9 10 11 10 8 7 7 7 8 8 7 6 5 4 3 3 3 2 2 2 3 4 4 4
4 4 3 3 4 4 5 5 4 4 5 7 9 8 7 6 6 6 6 7 7 8 7 6 6 6 6 7 6 6 6 5 4 3 3 3 2 2 2 3 3 4 4
4 4 3 3 4 5 5 4 4 4 5 6 7 7 7 6 6 6 6 6 6 6 5 5 5 5 5 5 5 5 6 5 4 3 3 3 3 2 2 2 2 3 3
4 4 4 4 4 4 3 3 4 5 6 6 6 6 6 6 6 5 5 5 5 5 5 5 5 5 5 4 4 4 4 4 4 3 3 3 3 3 2 2 2 2 2
4 4 4 4 4 3 3 3 4 5 6 6 6 6 6 6 6 5 6 6 6 6 7 6 6 5 4 4 3 3 3 4 3 3 3 3 3 3 2 2 1 1 1
3 3 3 3 3 3 3 3 4 5 6 6 6 7 7 7 6 6 7 7 7 8 8 8 6 5 4 3 3 3 3 3 3 3 3 3 3 3 2 2 1 1 1
2 2 2 2 2 3 3 4 5 6 7 7 6 7 8 8 7 8 8 9 8 9 9 9 7 5 4 3 3 3 3 3 3 3 3 3 3 2 2 1 1 1 1
1 2 2 2 3 3 4 4 6 8 8 7 6 6 7 8 8 8 9 10 10 11 11 9 7 5 4 3 3 3 2 2 2 2 2 2 2 2 2 1 1 1 1
1 2 2 2 3 3 4 4 6 8 8 6 5 6 8 9 9 10 11 11 12 13 12 10 7 5 4 4 3 3 2 2 2 2 2 2 2 2 2 2 2 2 2
2 2 2 2 3 3 4 4 4 5 6 5 5 7 9 11 12 12 11 12 13 13 11 10 8 6 4 3 3 2 2 2 2 1 1 1 1 1 2 2 2 2 2
2 2 3 3 4 4 4 4 4 4 4 4 5 7 11 13 14 13 12 12 12 12 10 9 7 5 3 2 2 2 2 2 1 1 1 1 1 1 2 2 3 3 2
2 3 3 4 4 5 5 5 4 4 5 5 5 7 10 13 15 15 14 13 11 10 9 8 6 3 2 1 1 1 1 1 1 1 1 1 1 1 2 3 3 3 3
2 2 3 3 4 4 5 4 4 4 4 4 5 6 8 10 13 15 15 13 11 9 8 6 4 2 1 0 0 1 1 1 1 1 1 1 1 1 2 2 3 3 4
2 2 2 2 2 2 2 2 3 3 3 3 3 3 4 6 10 13 13 12 9 7 6 5 3 1 0 0 0 0 1 1 1 1 1 1 1 1 1 1 2 2 3
2 1 1 2 2 2 2 2 2 2 2 2 2 2 2 3 5 8 9 8 7 6 5 3 2 1 0 0 0 0 1 1 1 1 1 1 1 1 1 1 1 1 1
2 1 1 2 2 3 3 3 2 2 2 2 2 1 1 1 3 5 6 6 5 4 3 2 1 1 0 0 0 0 0 0 1 1 1 1 1 1 1 1 1 1 1
2 2 2 2 3 4 4 4 3 2 3 3 2 2 1 1 2 3 4 4 4 3 2 1 1 1 0 0 0 0 0 0 0 1 1 1 1 1 1 1 2 2 1
3 2 2 3 4 4 4 3 3 2 3 3 3 2 1 1 2 3 3 3 3 2 1 1 0 1 1 0 0 0 0 0 0 0 0 0 0 0 0 1 1 2 2
2 2 2 3 3 3 3 3 2 2 3 3 2 2 2 2 2 2 2 2 1 1 1 0 0 1 1 0 0 0 0 0 0 0 0 0 0 0 0 0 1 1 1
2 2 2 3 3 3 3 2 2 2 2 2 2 2 2 1 1 1 1 1 1 1 1 1 0 0 1 0 0 0 0 0 0 0 0 0 0 0 0 0 0 0 1
1 2 2 3 3 3 3 2 2 2 1 1 2 2 1 1 1 1 0 0 1 1 0 0 0 0 0 0 0 0 0 0 0 0 0 0 0 0 0 0 0 0 0
1 2 2 2 2 3 2 2 1 1 1 1 1 1 1 1 1 1 0 0 0 0 0 0 0 0 0 0 0 0 0 0 0 0 0 0 0 0 0 0 0 0 0
2 2 2 2 2 2 2 2 2 1 1 1 1 1 1 1 1 1 0 0 0 0 0 0 0 0 0 0 0 0 0 0 0 0 0 0 0 0 0 0 0 0 0
2 2 2 1 1 2 2 3 3 2 1 1 1 1 1 1 1 0 0 0 0 0 0 0 0 0 0 0 0 0 0 0 0 0 0 0 0 0 0 0 0 0 0
Wind_Speed
5 5 4 4 4 4 3 3 3 3 2 2 2 2 2 2 1 1 2 2 2 2 2 2 2 3 2 2 3 3 4 4 3 3 4 4 5 4 3 3 3 3 4
5 5 5 4 5 4 3 3 2 2 2 2 2 2 1 2 2 1 2 2 2 2 3 2 2 3 3 3 3 3 3 4 3 2 3 3 2 3 4 3 3 4 3
5 4 4 3 3 4 3 2 2 2 2 2 2 1 1 1 1 2 2 2 2 2 2 2 2 2 3 2 3 3 3 3 3 2 2 2 2 3 2 4 4 4 3
4 4 4 4 3 4 4 3 3 2 2 2 2 3 2 2 2 2 1 2 2 3 3 2 2 2 2 2 3 2 2 3 4 3 3 3 3 3 3 3 3 3 4
3 3 4 4 3 3 3 3 2 2 1 1 1 1 2 2 1 1 2 2 2 3 3 2 2 1 2 2 3 3 3 2 3 3 3 3 3 4 3 4 4 3 3
3 3 3 4 3 3 3 3 3 2 1 1 1 2 2 2 1 2 2 2 2 2 2 2 1 1 2 2 2 3 3 2 3 3 3 3 3 3 3 4 4 4 3
4 4 3 3 4 3 3 3 3 2 2 1 1 2 2 1 1 2 1 1 1 1 1 1 1 1 2 2 2 2 2 3 3 3 3 3 3 3 3 4 4 5 4
4 4 3 3 3 2 2 3 3 2 1 1 1 1 1 0 1 1 1 1 1 0 1 1 1 1 2 3 2 2 3 2 2 3 4 3 3 2 3 3 4 5 4
4 4 4 3 3 3 2 3 2 2 2 1 1 1 0 0 1 1 1 1 1 1 0 1 1 1 2 2 2 2 3 2 2 3 3 3 3 3 3 3 3 3 5
3 3 4 4 3 3 3 3 3 3 2 1 1 1 1 1 1 1 1 1 1 1 2 2 2 2 2 2 2 3 3 2 3 2 3 3 3 3 3 3 3 3 4
3 3 3 3 3 2 2 2 3 3 2 2 1 2 1 1 1 1 1 1 2 2 2 2 2 2 2 2 2 3 3 3 4 4 3 3 3 3 3 4 4 3 3
4 4 4 4 3 2 2 3 3 2 2 2 2 1 1 1 2 2 2 2 2 1 1 2 2 2 2 2 2 3 3 4 4 4 4 4 4 4 4 4 4 4 3
4 5 5 4 3 3 2 2 2 2 2 2 2 2 2 2 2 2 2 2 1 1 2 2 1 2 2 2 3 3 4 4 4 4 4 4 4 4 4 4 4 4 4
4 4 4 4 3 3 3 3 3 3 2 2 2 1 1 1 1 2 2 2 1 1 2 2 2 2 2 3 4 5 4 4 4 3 3 3 3 4 4 4 4 4 4
3 3 3 3 2 2 3 3 3 3 2 1 1 1 0 1 1 1 2 2 1 2 2 2 2 3 2 3 5 5 5 5 4 4 3 3 3 4 4 4 4 4 3
3 3 3 3 2 2 2 2 2 1 1 1 0 0 1 1 2 1 1 1 2 2 2 3 3 4 4 5 5 5 5 4 5 5 4 3 3 4 5 5 6 5 4
3 3 3 3 2 2 2 1 0 0 0 1 1 1 1 2 2 2 2 2 2 2 2 2 2 3 4 5 6 8 5 4 4 3 3 4 4 5 4 5 6 5 6
2 2 2 2 1 1 1 1 1 0 1 1 1 1 2 2 2 3 3 2 2 2 2 2 1 2 4 5 6 8 4 4 3 2 2 3 3 5 5 5 5 4 5
2 1 1 1 0 1 1 1 1 1 1 1 1 2 2 2 2 2 3 2 2 2 1 1 1 2 3 5 5 6 4 3 4 3 3 3 3 4 5 4 5 5 5
2 1 0 0 0 1 1 2 1 2 2 2 2 2 2 2 2 2 2 2 2 2 1 1 1 2 3 4 5 5 3 4 4 3 2 4 4 4 4 3 4 5 6
2 2 1 0 0 0 1 1 2 2 1 1 1 1 1 1 1 1 1 1 2 2 1 1 1 2 3 2 4 4 3 4 4 4 3 2 4 5 5 4 4 6 7
2 1 1 1 0 0 0 1 0 1 1 1 1 1 1 2 2 1 2 2 2 2 1 1 1 1 2 2 2 3 3 4 3 4 4 4 5 6 6 5 6 8 7
2 2 1 1 1 0 1 1 1 1 1 1 1 1 0 1 1 1 2 2 2 2 2 2 2 2 2 2 3 4 6 6 3 4 6 7 7 6 5 5 6 5 3
2 1 1 2 1 1 2 2 1 1 1 1 1 0 0 0 1 1 1 2 2 2 3 3 3 3 2 3 3 3 4 5 4 5 6 7 6 5 5 4 3 2 2
2 1 1 2 2 2 2 1 1 1 1 1 1 0 1 1 1 1 1 1 1 1 1 2 2 2 3 3 4 4 4 4 5 5 4 3 3 3 2 2 2 2 3
1 1 1 2 2 2 1 1 1 1 1 1 1 1 1 1 1 2 1 2 1 1 2 1 0 0 1 3 5 6 7 8 7 4 3 3 4 4 4 3 3 3 3
Wind_Direction
127 127 129 129 129 124 121 133 141 136 160 177 192 209 213 210 228 204 163 182 199 213 245 272 264 266 264 269 272 274 276 274 271 284 287 268 245 236 232 229 237 235 242
121 125 130 136 138 135 141 139 130 139 180 187 206 221 211 219 211 209 186 204 211 224 239 244 273 275 276 271 270 275 276 282 276 274 294 292 270 248 246 223 226 238 236
128 129 128 127 146 151 158 160 155 148 164 201 202 209 192 260 242 216 202 209 217 227 248 240 262 275 276 279 279 266 268 279 286 269 264 284 291 311 269 256 240 226 228
118 142 143 154 184 175 160 151 141 153 171 212 211 218 223 227 227 220 205 208 220 226 238 240 249 261 278 286 281 285 278 277 281 279 257 256 278 282 294 281 267 259 245
105 137 149 156 158 152 134 134 150 158 175 226 219 243 248 243 236 208 195 217 230 232 242 242 251 273 279 284 297 299 288 279 276 284 285 283 278 260 264 284 286 278 260
75 101 123 128 126 130 132 140 149 147 183 213 221 242 256 253 232 236 220 224 225 223 233 242 263 282 283 291 293 289 291 288 284 286 285 287 287 284 277 278 281 278 270
64 81 93 112 110 113 126 137 140 149 171 189 215 228 237 244 243 251 242 241 245 229 224 291 288 289 285 280 283 284 281 280 282 285 287 288 288 292 287 285 286 284 278
70 78 82 88 102 105 107 121 131 135 148 166 185 198 212 253 273 265 260 256 266 261 144 240 265 265 279 292 290 285 279 280 277 292 294 292 292 288 279 279 286 290 285
66 66 75 87 89 80 96 113 121 126 132 132 127 113 134 266 305 305 285 269 280 289 278 260 267 273 281 293 295 291 289 297 293 291 290 292 295 292 285 283 281 279 289
55 65 75 76 75 78 89 107 113 106 107 98 75 69 54 357 323 274 272 303 305 290 278 261 257 268 279 290 294 289 290 293 293 284 287 294 300 305 306 297 292 285 280
48 77 86 93 93 83 86 100 100 104 103 96 73 58 41 359 317 320 321 298 277 273 265 274 275 273 277 286 285 285 296 299 298 297 297 292 299 306 308 310 306 298 292
44 64 77 85 86 76 59 66 82 95 100 95 84 67 26 4 346 333 319 299 293 288 293 286 288 284 293 296 292 301 304 299 296 297 304 303 309 304 303 303 301 301 298
54 59 63 61 62 56 48 57 66 68 71 74 81 66 26 8 343 337 327 324 319 309 291 282 290 318 336 337 327 314 312 307 306 312 316 312 311 303 303 303 309 308 309
50 46 57 58 48 42 48 53 56 56 60 65 70 67 26 339 326 344 350 337 320 318 330 332 341 346 5 357 338 328 317 314 312 311 309 308 305 307 313 316 326 325 322
55 49 48 55 50 43 49 57 52 47 36 28 52 76 295 307 345 6 2 342 334 346 0 354 353 358 6 359 354 337 327 324 317 312 316 333 360 7 348 344 336 329 325
31 45 45 56 54 40 37 61 63 52 26 333 334 10 6 26 25 23 7 351 1 1 357 3 5 10 2 3 358 344 325 320 317 317 328 328 24 12 349 333 323 312 309
20 31 35 23 30 36 23 23 85 126 9 22 18 26 35 36 21 11 20 16 5 354 355 6 14 20 19 7 356 348 326 319 319 324 328 339 9 9 354 331 319 310 299
17 20 38 44 4 11 6 338 335 10 49 47 27 34 29 28 26 19 14 9 360 345 343 358 7 35 29 19 8 349 329 329 334 336 360 24 2 353 353 332 333 330 330
15 21 58 84 22 11 359 329 335 4 33 38 29 35 21 16 20 19 6 357 341 330 328 356 29 57 48 29 18 360 342 344 341 354 28 32 12 0 351 339 331 328 324
7 10 56 116 346 359 346 337 12 21 19 20 22 28 13 357 6 6 349 347 331 330 347 27 42 74 73 36 22 5 350 349 347 357 38 36 4 345 348 333 322 319 320
340 345 342 91 36 21 346 344 28 22 4 348 2 38 14 346 9 1 337 327 326 334 342 0 41 98 105 53 24 5 350 343 338 336 339 355 341 321 321 315 299 301 311
338 348 348 335 351 4 319 323 328 318 334 326 336 27 20 342 5 1 332 333 330 324 315 336 42 101 108 75 12 337 315 313 323 324 334 338 326 307 301 301 301 314 322
348 353 330 329 348 302 227 256 252 254 276 289 300 341 23 353 9 353 347 346 348 348 359 14 14 25 55 45 345 320 316 315 310 316 319 313 306 305 299 304 307 313 322
350 339 338 328 319 287 246 240 238 248 257 264 254 239 234 65 49 8 7 12 6 6 7 8 5 4 16 20 0 340 326 325 324 321 313 302 293 293 293 308 313 312 325
339 329 322 301 301 294 272 251 220 219 238 234 208 240 223 162 100 59 20 33 19 13 19 7 1 356 358 343 318 309 315 324 329 324 308 321 335 339 342 348 350 347 350
339 325 300 290 287 284 272 252 227 201 190 192 204 230 220 190 168 143 106 50 118 115 115 154 251 336 280 293 305 305 304 309 318 324 324 342 346 344 349 354 354 358 1